This is the latest recevied weather packets stored in our database for station/object K7FRY. If no packets are shown the sender has not sent any weather packets the latest 10 day(s).
| Time | Temp. | Humidity | Pressure | Rain* | Wind** | Luminosity | Snow |
|---|---|---|---|---|---|---|---|
| 1777744970 | 26.67° C | 33% | 1017.9 hPa | 0 mm | - | 789 W/m² | - |
| 1777744669 | 26.67° C | 32% | 1017.9 hPa | 0 mm | - | 790 W/m² | - |
| 1777744364 | 26.67° C | 32% | 1018 hPa | 0 mm | - | 778 W/m² | - |
| 1777744062 | 26.67° C | 33% | 1017.9 hPa | 0 mm | - | 761 W/m² | - |
| 1777743759 | 26.67° C | 33% | 1018.2 hPa | 0 mm | - | 742 W/m² | - |
| 1777743456 | 26.11° C | 34% | 1018.2 hPa | 0 mm | - | 744 W/m² | - |
| 1777743153 | 26.11° C | 33% | 1018.2 hPa | 0 mm | - | 773 W/m² | - |
| 1777742851 | 26.67° C | 33% | 1018.1 hPa | 0 mm | - | 792 W/m² | - |
| 1777742547 | 26.11° C | 34% | 1018.4 hPa | 0 mm | - | 799 W/m² | - |
| 1777742243 | 26.11° C | 34% | 1018.4 hPa | 0 mm | - | 789 W/m² | - |
| 1777741940 | 26.11° C | 34% | 1018.1 hPa | 0 mm | - | 760 W/m² | - |
| 1777741637 | 26.11° C | 34% | 1018.6 hPa | 0 mm | - | 758 W/m² | - |
| 1777741334 | 25° C | 36% | 1018.5 hPa | 0 mm | - | 773 W/m² | - |
| 1777741030 | 25° C | 36% | 1018.5 hPa | 0 mm | - | 764 W/m² | - |
| 1777740728 | 25.56° C | 35% | 1018.4 hPa | 0 mm | - | 768 W/m² | - |
| 1777740423 | 25.56° C | 36% | 1018.4 hPa | 0 mm | - | 768 W/m² | - |
| 1777740121 | 25.56° C | 36% | 1018.4 hPa | 0 mm | - | 798 W/m² | - |
| 1777739816 | 25° C | 37% | 1018.2 hPa | 0 mm | - | 809 W/m² | - |
| 1777739513 | 25° C | 37% | 1018.5 hPa | 0 mm | - | 803 W/m² | - |
| 1777739210 | 24.44° C | 38% | 1018.4 hPa | 0 mm | - | 802 W/m² | - |
| 1777738907 | 24.44° C | 37% | 1018.2 hPa | 0 mm | - | 819 W/m² | - |
| 1777738604 | 24.44° C | 37% | 1018.4 hPa | 0 mm | - | 797 W/m² | - |
| 1777738301 | 24.44° C | 39% | 1018.5 hPa | 0 mm | - | 781 W/m² | - |
| 1777737999 | 23.89° C | 38% | 1018.4 hPa | 0 mm | - | 763 W/m² | - |
| 1777737698 | 23.89° C | 39% | 1018.2 hPa | 0 mm | - | 742 W/m² | - |
* Rain latest hour (hover to see other rain measurements)
** Current wind speed in m/s (hover to see current wind gust speed)